Change the Weather History Date:

Thursday, January 2, 2014

  Actual Average (KPLN) Record (KPLN)
Temperature  
Mean Temperature 0 °F -  
Max Temperature 8 °F 28 °F 46 °F (1998)
Min Temperature -9 °F 13 °F -22 °F (2014)
Degree Days  
Heating Degree Days 66    
Moisture  
Dew Point -3 °F    
Average Humidity 81    
Maximum Humidity 86    
Minimum Humidity 70    
Precipitation  
Precipitation 0.00 in - - ()
Sea Level Pressure  
Sea Level Pressure 30.31 in    
Wind  
Wind Speed 1 mph (ENE)    
Max Wind Speed 9 mph    
Max Gust Speed -    
Visibility 9 miles    
Events Snow    
Averages and records for this station are not official NWS values.
T = Trace of Precipitation, MM = Missing Value Source: NWS Daily Summary

Daily Weather History Graph

Daily Weather History Graph

Search for Another Location

Airport or City:

Trip Planner

Search our weather history database for the weather conditions in past years. The results will help you decide how hot, cold, wet, or windy it might be!

Date:

Astronomy

Jan. 02, 2014 Rise Set
Actual Time 8:19 AM EST 5:08 PM EST
Civil Twilight 7:45 AM EST 5:42 PM EST
Nautical Twilight 7:08 AM EST 6:19 PM EST
Astronomical Twilight 6:32 AM EST 6:55 PM EST
Moon 8:54 AM EST (1/2) 7:10 PM EST (1/2)
Length of Visible Light 9h 56m
Length of Day
8h 48m
New Moon, 2% of the Moon is Illuminated
Jan 2
New Moon
Jan 7
First Quarter
Jan 15
Full
Jan 24
Last Quarter
Jan 30
New

Hourly Weather History & Observations

Time (EST) Temp. Windchill Dew Point Humidity Pressure Visibility Wind Dir Wind Speed Gust Speed Precip Events Conditions
12:15 AM 2.1 °F - -1.3 °F 86% 30.38 in 10.0 mi Calm Calm - N/A   Overcast
12:35 AM 2.1 °F - -1.5 °F 85% 30.37 in 10.0 mi Calm Calm - N/A   Overcast
12:54 AM 1.8 °F - -1.7 °F 86% 30.36 in 10.0 mi Calm Calm - N/A   Overcast
1:15 AM 2.3 °F - -0.9 °F 86% 30.36 in 10.0 mi Calm Calm - N/A   Overcast
1:35 AM 2.1 °F - -1.3 °F 86% 30.35 in 10.0 mi Calm Calm - N/A   Overcast
1:54 AM 2.3 °F - -1.5 °F 84% 30.35 in 10.0 mi Calm Calm - N/A   Overcast
2:15 AM 2.1 °F - -1.7 °F 84% 30.34 in 10.0 mi Calm Calm - N/A   Overcast
2:35 AM 2.3 °F - -1.5 °F 84% 30.34 in 10.0 mi Calm Calm - N/A   Overcast
2:54 AM 2.3 °F - -1.5 °F 84% 30.34 in 10.0 mi Calm Calm - N/A   Overcast
3:15 AM 2.1 °F - -1.7 °F 84% 30.34 in 10.0 mi Calm Calm - N/A   Overcast
3:35 AM 1.9 °F - -2.2 °F 83% 30.34 in 10.0 mi Calm Calm - N/A   Overcast
3:54 AM 1.9 °F - -2.0 °F 83% 30.33 in 10.0 mi Calm Calm - N/A   Overcast
4:15 AM 2.3 °F - -1.7 °F 84% 30.32 in 10.0 mi Calm Calm - N/A   Overcast
4:35 AM 2.3 °F - -1.7 °F 84% 30.32 in 10.0 mi Calm Calm - N/A   Overcast
4:54 AM 1.8 °F - -2.2 °F 83% 30.31 in 10.0 mi Calm Calm - N/A   Overcast
5:15 AM 1.2 °F - -2.2 °F 86% 30.31 in 10.0 mi Calm Calm - N/A   Overcast
5:35 AM 1.0 °F - -2.2 °F 86% 30.31 in 10.0 mi Calm Calm - N/A   Overcast
5:54 AM 1.0 °F - -2.2 °F 86% 30.30 in 10.0 mi Calm Calm - N/A   Overcast
6:15 AM 0.7 °F - -2.9 °F 85% 30.30 in 10.0 mi Calm Calm - N/A   Overcast
6:35 AM -1.5 °F - -5.1 °F 85% 30.31 in 10.0 mi Calm Calm - N/A   Mostly Cloudy
6:54 AM -1.3 °F - -4.7 °F 85% 30.31 in 10.0 mi Calm Calm - N/A   Mostly Cloudy
7:15 AM -1.1 °F - -4.5 °F 85% 30.31 in 10.0 mi Calm Calm - N/A   Overcast
7:35 AM -1.3 °F - -4.7 °F 85% 30.31 in 5.0 mi Calm Calm - N/A Snow Light Snow
7:54 AM -0.6 °F - -4.2 °F 85% 30.31 in 10.0 mi Calm Calm - N/A   Overcast
8:15 AM -0.2 °F - -3.8 °F 85% 30.30 in 10.0 mi Calm Calm - N/A   Overcast
8:34 AM 0.5 °F - -3.1 °F 85% 30.30 in 10.0 mi Calm Calm - N/A   Overcast
8:55 AM 1.4 °F - -2.2 °F 85% 30.29 in 10.0 mi Calm Calm - N/A   Overcast
9:15 AM 2.5 °F - -1.3 °F 84% 30.30 in 10.0 mi Calm Calm - N/A   Overcast
9:34 AM 3.6 °F - -0.4 °F 84% 30.30 in 10.0 mi Calm Calm - N/A   Mostly Cloudy
9:55 AM 5.9 °F - 1.9 °F 84% 30.30 in 10.0 mi Calm Calm - N/A   Mostly Cloudy
10:15 AM 5.9 °F - 1.6 °F 82% 30.30 in 7.0 mi Calm Calm - N/A   Scattered Clouds
10:34 AM 6.6 °F - 1.6 °F 80% 30.31 in 10.0 mi Calm Calm - N/A   Scattered Clouds
10:55 AM 7.0 °F - 1.9 °F 80% 30.31 in 10.0 mi Calm Calm - N/A   Scattered Clouds
11:15 AM 6.4 °F - 1.4 °F 80% 30.31 in 7.0 mi Calm Calm - N/A   Mostly Cloudy
11:34 AM 8.4 °F -2.8 °F 3.4 °F 80% 30.30 in 4.0 mi East 6.9 mph - N/A Snow Light Snow
11:55 AM 8.4 °F -1.6 °F 2.5 °F 77% 30.30 in 10.0 mi ESE 5.8 mph - N/A   Overcast
12:15 PM 8.4 °F -2.8 °F 2.1 °F 76% 30.29 in 10.0 mi ESE 6.9 mph - N/A   Overcast
12:35 PM 8.4 °F -1.6 °F 1.8 °F 74% 30.28 in 4.0 mi East 5.8 mph - N/A   Haze
12:55 PM 8.4 °F -1.6 °F 1.8 °F 74% 30.28 in 5.0 mi East 5.8 mph - N/A   Haze
1:14 PM 8.4 °F -2.8 °F 0.5 °F 70% 30.28 in 10.0 mi ENE 6.9 mph - N/A   Overcast
1:35 PM 8.4 °F -4.9 °F 1.2 °F 73% 30.27 in 2.5 mi ENE 9.2 mph - N/A   Haze
1:55 PM 8.4 °F -0.1 °F 2.1 °F 76% 30.27 in 1.8 mi ENE 4.6 mph - N/A   Haze
2:14 PM 8.4 °F -2.8 °F 2.3 °F 76% 30.26 in 1.2 mi ENE 6.9 mph - N/A Snow Light Snow
2:35 PM 8.4 °F -2.8 °F 1.0 °F 72% 30.27 in 4.0 mi NE 6.9 mph - N/A   Haze
2:55 PM 8.4 °F -2.8 °F 2.1 °F 76% 30.27 in 3.0 mi NE 6.9 mph - N/A   Haze
3:14 PM 8.4 °F - 1.9 °F 75% 30.27 in 5.0 mi Calm Calm - N/A   Haze
3:35 PM 8.4 °F -1.6 °F 1.2 °F 73% 30.28 in 7.0 mi ENE 5.8 mph - N/A   Mostly Cloudy
3:55 PM 5.9 °F -1.1 °F -0.9 °F 73% 30.29 in 10.0 mi NE 3.5 mph - N/A   Scattered Clouds
4:14 PM 5.9 °F - -1.3 °F 72% 30.29 in 10.0 mi Calm Calm - N/A   Clear
4:35 PM 5.5 °F - -1.7 °F 72% 30.29 in 10.0 mi Calm Calm - N/A   Clear
4:55 PM 3.6 °F - -3.3 °F 73% 30.29 in 10.0 mi Calm Calm - N/A   Clear
5:14 PM 2.3 °F - -4.5 °F 73% 30.29 in 10.0 mi Calm Calm - N/A   Clear
5:35 PM 2.3 °F - -3.8 °F 76% 30.30 in 10.0 mi Calm Calm - N/A   Clear
5:55 PM 0.1 °F - -4.9 °F 79% 30.31 in 10.0 mi Calm Calm - N/A   Clear
6:14 PM -0.9 °F - -6.2 °F 79% 30.31 in 10.0 mi Calm Calm - N/A   Clear
6:35 PM -1.7 °F - -5.8 °F 83% 30.32 in 10.0 mi Calm Calm - N/A   Clear
6:55 PM -2.6 °F - -6.7 °F 82% 30.32 in 10.0 mi Calm Calm - N/A   Clear
7:14 PM -4.5 °F - -8.7 °F 82% 30.32 in 10.0 mi Calm Calm - N/A   Clear
7:35 PM -4.2 °F - -8.1 °F 83% 30.32 in 10.0 mi Calm Calm - N/A   Clear
7:55 PM -5.8 °F - -9.8 °F 83% 30.32 in 10.0 mi Calm Calm - N/A   Clear
8:14 PM -6.9 °F - -11.6 °F 80% 30.32 in 10.0 mi Calm Calm - N/A   Clear
8:35 PM -6.7 °F - -11.2 °F 81% 30.31 in 10.0 mi Calm Calm - N/A   Clear
8:55 PM -6.7 °F - -11.2 °F 81% 30.31 in 10.0 mi Calm Calm - N/A   Clear
9:14 PM -8.0 °F - -12.5 °F 81% 30.31 in 10.0 mi Calm Calm - N/A   Clear
9:35 PM -8.9 °F - -13.4 °F 81% 30.31 in 10.0 mi Calm Calm - N/A   Clear
9:55 PM -9.2 °F - -13.9 °F 80% 30.31 in 10.0 mi Calm Calm - N/A   Scattered Clouds
10:15 PM -9.4 °F - -14.1 °F 80% 30.31 in 10.0 mi Calm Calm - N/A   Mostly Cloudy
10:35 PM -9.0 °F - -13.9 °F 79% 30.31 in 10.0 mi Calm Calm - N/A   Mostly Cloudy
10:54 PM -6.7 °F - -11.2 °F 81% 30.31 in 10.0 mi Calm Calm - N/A   Overcast
11:15 PM -6.7 °F - -11.4 °F 80% 30.31 in 10.0 mi Calm Calm - N/A   Overcast
11:35 PM -6.7 °F - -11.2 °F 81% 30.30 in 10.0 mi Calm Calm - N/A   Overcast
11:54 PM -6.7 °F - -11.2 °F 81% 30.30 in 10.0 mi Calm Calm - N/A   Overcast